Weather History for Kodiak, AK

Change the Weather History Date:

Friday, November 8, 2013

  Actual Average Record
Temperature  
Mean Temperature 42 °F 35 °F  
Max Temperature 46 °F 40 °F 52 °F (2003)
Min Temperature 37 °F 30 °F 11 °F (1990)
Degree Days  
Heating Degree Days 23 30  
Month to date heating degree days 204 235  
Since 1 July heating degree days 1752 2093  
Cooling Degree Days 0    
Month to date cooling degree days 0  
Year to date cooling degree days 6  
Moisture  
Dew Point 31 °F    
Average Humidity 0    
Maximum Humidity 0    
Minimum Humidity 0    
Precipitation  
Precipitation T in 0.22 in 2.87 in (1997)
Month to date precipitation 1.44 1.80  
Year to date precipitation 58.85 64.20  
Snow  
Snow 0.00 in 0.20 in 2.00 in (1977)
Month to date snowfall 0.0 1.0  
Since 1 July snowfall 0.0 2.1  
Since 1 September snowfall 0.0 2.1  
Snow Depth 0.00 in    
Sea Level Pressure  
Sea Level Pressure 30.09 in    
Wind  
Wind Speed 12 mph (WNW)    
Max Wind Speed 23 mph    
Max Gust Speed 37 mph    
Visibility 10 miles    
Events Rain    
T = Trace of Precipitation, MM = Missing Value Source: NWS Daily Summary

Daily Weather History Graph

Daily Weather History Graph

Search for Another Location

Airport:

Trip Planner

Search our weather history database for the weather conditions in past years. The results will help you decide how hot, cold, wet, or windy it might be!

Date:

Astronomy

Nov. 08, 2013 Rise Set
Actual Time 8:40 AM AKST 5:06 PM AKST
Civil Twilight 7:56 AM AKST 5:49 PM AKST
Nautical Twilight 7:09 AM AKST 6:36 PM AKST
Astronomical Twilight 6:24 AM AKST 7:22 PM AKST
Moon 1:41 PM AKST (11/8) 10:45 PM AKST (11/8)
Length of Visible Light 9h 52m
Length of Day
8h 25m
Waxing Crescent, 34% of the Moon is Illuminated
Nov 8
Waxing Crescent
Nov 9
First Quarter
Nov 17
Full
Nov 25
Last Quarter
Dec 2
New

Hourly Weather History & Observations

Time (AKST) Temp. Windchill Dew Point Humidity Pressure Visibility Wind Dir Wind Speed Gust Speed Precip Events Conditions
12:53 AM 39.0 °F 30.3 °F 35.1 °F 86% 29.88 in 10.0 mi WNW 16.1 mph - 0.00 in   Overcast
1:53 AM 39.0 °F 31.4 °F 35.1 °F 86% 29.91 in 10.0 mi WNW 12.7 mph - N/A   Mostly Cloudy
2:53 AM 39.0 °F 34.0 °F 33.1 °F 79% 29.94 in 10.0 mi NNW 6.9 mph - N/A   Clear
3:53 AM 39.0 °F 34.8 °F 33.1 °F 79% 29.96 in 10.0 mi WNW 5.8 mph - N/A   Mostly Cloudy
4:42 AM 39.2 °F 35.0 °F 33.8 °F 81% 29.97 in 10.0 mi West 5.8 mph - N/A   Mostly Cloudy
4:53 AM 41.0 °F 35.2 °F 33.1 °F 73% 29.98 in 10.0 mi NW 9.2 mph 17.3 mph N/A   Scattered Clouds
5:53 AM 39.9 °F 32.1 °F 33.1 °F 77% 30.01 in 10.0 mi WNW 13.8 mph 23.0 mph 0.00 in Rain Light Rain
6:53 AM 39.9 °F 30.8 °F 32.0 °F 73% 30.02 in 10.0 mi West 18.4 mph - 0.00 in   Clear
7:53 AM 39.0 °F 31.4 °F 30.9 °F 73% 30.04 in 10.0 mi WNW 12.7 mph - N/A   Partly Cloudy
8:53 AM 39.9 °F 32.5 °F 28.0 °F 63% 30.06 in 10.0 mi WNW 12.7 mph 19.6 mph N/A   Partly Cloudy
9:53 AM 42.1 °F 35.2 °F 28.9 °F 60% 30.08 in 10.0 mi WNW 12.7 mph 21.9 mph N/A   Clear
10:53 AM 43.0 °F 37.2 °F 28.0 °F 56% 30.11 in 10.0 mi NW 10.4 mph - N/A   Clear
11:53 AM 43.0 °F 35.7 °F 30.9 °F 62% 30.12 in 10.0 mi West 15.0 mph 20.7 mph N/A   Clear
12:53 PM 44.1 °F 37.4 °F 28.0 °F 53% 30.12 in 10.0 mi West 13.8 mph 20.7 mph N/A   Clear
1:53 PM 44.1 °F 36.5 °F 27.0 °F 51% 30.14 in 10.0 mi West 17.3 mph 29.9 mph N/A   Scattered Clouds
2:53 PM 45.0 °F 37.9 °F 27.0 °F 49% 30.13 in 10.0 mi West 16.1 mph 27.6 mph N/A   Scattered Clouds
3:53 PM 44.1 °F 37.1 °F 30.0 °F 58% 30.15 in 10.0 mi WNW 15.0 mph 25.3 mph N/A   Mostly Cloudy
4:53 PM 44.1 °F 36.5 °F 28.9 °F 55% 30.16 in 10.0 mi WNW 17.3 mph - N/A   Overcast
5:53 PM 43.0 °F 35.1 °F 30.0 °F 60% 30.18 in 10.0 mi West 17.3 mph 21.9 mph N/A   Mostly Cloudy
6:53 PM 42.1 °F 36.6 °F 30.9 °F 65% 30.20 in 10.0 mi WNW 9.2 mph - N/A   Mostly Cloudy
7:53 PM 42.1 °F 38.4 °F 30.9 °F 65% 30.22 in 10.0 mi West 5.8 mph - N/A   Mostly Cloudy
8:53 PM 44.1 °F 40.8 °F 28.9 °F 55% 30.21 in 10.0 mi NNW 5.8 mph - N/A   Mostly Cloudy
9:53 PM 43.0 °F 41.3 °F 28.9 °F 58% 30.23 in 10.0 mi SW 3.5 mph - N/A   Scattered Clouds
10:53 PM 42.1 °F 37.1 °F 32.0 °F 67% 30.23 in 10.0 mi WSW 8.1 mph - N/A   Scattered Clouds
11:53 PM 43.0 °F 41.3 °F 33.1 °F 68% 30.24 in 10.0 mi South 3.5 mph - N/A   Mostly Cloudy